Location: Newark
(34.6283°N, 36.0776°E)
Time: 20:58:42
(UTC+00:00)

S-56A Canister/Altair - Pass Details

Date: 22 October 2019
Orbit: 634 x 2498 km, 38.9° (Epoch: 17 November)

Event Time Altitude Azimuth Distance (km) Brightness Sun altitude
Rises 01:05:29 0° 269° (W) 3,397 - -33.8°
Reaches altitude 10° 01:07:39 10° 273° (W) 2,623 - -33.3°
Exits shadow 01:13:39 66° 343° (NNW) 1,289 8.4 -32.1°
Maximum altitude 01:13:55 67° 356° (N) 1,298 8.5 -32.1°
Drops below altitude 10° 01:23:36 10° 78° (ENE) 3,952 12.1 -30.1°
Sets 01:27:35 0° 81° (E) 5,242 13.0 -29.3°
